EXS36ND LGKR-EGBB

Flight info

Callsign EXS36ND
Flight time 3h 1m
Altitude 36000
Route OLGAT DCT LUMAR DCT AIOSA DCT SOTOV DCT XEBIX DCT USUDO DCT LIRSU DCT DENUT L610 HEMEL
Aircraft B738/M-SDE2E3FGHIRWXY/LB1

Departure

Time 2026-04-28 12:50
Airport Corfu Ioannis Kapodistrias International Airport (LGKR)

Arrival

Time 2026-04-28 15:52
Airport Birmingham Airport (EGBB)
Time Latitude Longitude Altitude Speed Heading
2026-04-28 11:52 39.60629 19.91367 17 ft 0 kts 79°
2026-04-28 12:41 39.60628 19.91363 17 ft 3 kts 79°
2026-04-28 12:42 39.60624 19.91329 19 ft 4 kts 79°
2026-04-28 12:42 39.60620 19.91302 18 ft 4 kts 83°
2026-04-28 12:42 39.60618 19.91268 17 ft 4 kts 85°
2026-04-28 12:42 39.60612 19.91236 19 ft 4 kts 47°
2026-04-28 12:43 39.60619 19.91236 19 ft 4 kts 15°
2026-04-28 12:43 39.60644 19.91232 17 ft 4 kts 347°
2026-04-28 12:43 39.60668 19.91225 17 ft 1 kts 348°
2026-04-28 12:46 39.60675 19.91223 17 ft 3 kts 348°
2026-04-28 12:46 39.60710 19.91214 17 ft 7 kts 348°
2026-04-28 12:46 39.60769 19.91199 17 ft 9 kts 349°
2026-04-28 12:46 39.60830 19.91183 17 ft 9 kts 349°
2026-04-28 12:47 39.60890 19.91168 19 ft 9 kts 349°
2026-04-28 12:47 39.60948 19.91152 18 ft 8 kts 348°
2026-04-28 12:47 39.61004 19.91137 18 ft 8 kts 348°
2026-04-28 12:47 39.61058 19.91122 18 ft 8 kts 348°
2026-04-28 12:48 39.61111 19.91108 18 ft 8 kts 348°
2026-04-28 12:48 39.61162 19.91095 18 ft 7 kts 348°
2026-04-28 12:48 39.61205 19.91067 19 ft 7 kts 301°
2026-04-28 12:48 39.61229 19.91010 20 ft 7 kts 290°
2026-04-28 12:49 39.61217 19.90954 20 ft 7 kts 228°
2026-04-28 12:49 39.61200 19.90953 20 ft 4 kts 169°
2026-04-28 12:49 39.61026 19.90999 18 ft 60 kts 169°
2026-04-28 12:49 39.60380 19.91165 19 ft 127 kts 169°
2026-04-28 12:50 39.59323 19.91435 70 ft 177 kts 165°
2026-04-28 12:50 39.58136 19.91768 949 ft 168 kts 163°
2026-04-28 12:50 39.57189 19.92713 1509 ft 188 kts 116°
2026-04-28 12:50 39.57063 19.94495 1798 ft 217 kts 69°
2026-04-28 12:51 39.57990 19.96019 2361 ft 221 kts 31°
2026-04-28 12:51 39.59431 19.96673 3084 ft 223 kts 360°
2026-04-28 12:51 39.60881 19.96097 3853 ft 223 kts 319°
2026-04-28 12:51 39.61684 19.94417 4593 ft 224 kts 277°
2026-04-28 12:52 39.61475 19.92470 5342 ft 224 kts 247°
2026-04-28 12:52 39.60902 19.90531 6071 ft 232 kts 248°
2026-04-28 12:52 39.60308 19.88486 6378 ft 260 kts 248°
2026-04-28 12:52 39.59668 19.86224 6954 ft 272 kts 249°
2026-04-28 12:53 39.59039 19.83874 7698 ft 278 kts 250°
2026-04-28 12:53 39.58452 19.81461 8507 ft 284 kts 257°
2026-04-28 12:53 39.58559 19.78910 9274 ft 290 kts 291°
2026-04-28 12:53 39.59697 19.76772 10082 ft 291 kts 318°
2026-04-28 12:54 39.61218 19.74983 10604 ft 305 kts 319°
2026-04-28 12:54 39.62875 19.73079 10802 ft 330 kts 319°
2026-04-28 12:54 39.64640 19.71054 11191 ft 345 kts 319°
2026-04-28 12:54 39.66449 19.68968 11878 ft 350 kts 319°
2026-04-28 12:55 39.68266 19.66858 12738 ft 350 kts 319°
2026-04-28 12:55 39.70080 19.64740 13567 ft 352 kts 318°
2026-04-28 12:55 39.71903 19.62602 14279 ft 355 kts 318°
2026-04-28 12:55 39.73744 19.60437 14981 ft 358 kts 318°
2026-04-28 12:56 39.75598 19.58254 15682 ft 360 kts 317°
2026-04-28 12:56 39.77459 19.56059 16393 ft 362 kts 317°
2026-04-28 12:56 39.79333 19.53846 17090 ft 365 kts 317°
2026-04-28 12:56 39.81217 19.51618 17774 ft 368 kts 317°
2026-04-28 12:57 39.83118 19.49369 18442 ft 370 kts 317°
2026-04-28 12:57 39.85031 19.47104 19009 ft 373 kts 317°
2026-04-28 12:57 39.86959 19.44820 19570 ft 377 kts 317°
2026-04-28 12:57 39.88884 19.42537 20102 ft 380 kts 317°
2026-04-28 12:58 39.90854 19.40199 20646 ft 384 kts 317°
2026-04-28 12:58 39.92836 19.37845 21193 ft 387 kts 317°
2026-04-28 12:58 39.94832 19.35472 21730 ft 390 kts 317°
2026-04-28 12:58 39.96844 19.33079 22248 ft 393 kts 317°
2026-04-28 12:59 39.98871 19.30664 22759 ft 396 kts 317°
2026-04-28 12:59 40.00915 19.28228 23257 ft 400 kts 317°
2026-04-28 12:59 40.02980 19.25766 23754 ft 403 kts 317°
2026-04-28 12:59 40.05057 19.23286 24165 ft 405 kts 317°
2026-04-28 13:00 40.07140 19.20797 24608 ft 407 kts 317°
2026-04-28 13:00 40.09209 19.18323 25053 ft 409 kts 317°
2026-04-28 13:00 40.11309 19.15809 25478 ft 411 kts 317°
2026-04-28 13:00 40.13426 19.13273 25876 ft 413 kts 317°
2026-04-28 13:01 40.15549 19.10727 26269 ft 416 kts 317°
2026-04-28 13:01 40.17685 19.08163 26645 ft 418 kts 317°
2026-04-28 13:01 40.19842 19.05573 27022 ft 421 kts 317°
2026-04-28 13:01 40.22008 19.02969 27396 ft 423 kts 317°
2026-04-28 13:02 40.24184 19.00353 27776 ft 425 kts 317°
2026-04-28 13:02 40.26440 18.97840 28119 ft 427 kts 321°
2026-04-28 13:02 40.28749 18.95453 28477 ft 430 kts 322°
2026-04-28 13:02 40.31126 18.93068 28808 ft 432 kts 322°
2026-04-28 13:03 40.33532 18.90669 29157 ft 434 kts 322°
2026-04-28 13:03 40.35939 18.88259 29489 ft 436 kts 322°
2026-04-28 13:03 40.38353 18.85825 29814 ft 438 kts 322°
2026-04-28 13:03 40.40771 18.83371 30117 ft 440 kts 322°
2026-04-28 13:04 40.43197 18.80897 30407 ft 441 kts 322°
2026-04-28 13:04 40.45615 18.78422 30767 ft 440 kts 322°
2026-04-28 13:04 40.48024 18.75951 31160 ft 439 kts 322°
2026-04-28 13:04 40.50428 18.73482 31510 ft 438 kts 322°
2026-04-28 13:05 40.52828 18.71014 31847 ft 438 kts 322°
2026-04-28 13:05 40.55190 18.68583 32195 ft 437 kts 322°
2026-04-28 13:05 40.57579 18.66124 32565 ft 435 kts 322°
2026-04-28 13:05 40.59964 18.63665 32911 ft 435 kts 322°
2026-04-28 13:06 40.62341 18.61213 33236 ft 434 kts 322°
2026-04-28 13:06 40.64726 18.58750 33578 ft 433 kts 322°
2026-04-28 13:06 40.67096 18.56301 33916 ft 432 kts 322°
2026-04-28 13:06 40.69460 18.53856 34239 ft 431 kts 321°
2026-04-28 13:07 40.71814 18.51419 34584 ft 428 kts 321°
2026-04-28 13:07 40.74150 18.48998 34910 ft 426 kts 321°
2026-04-28 13:07 40.76479 18.46582 35190 ft 426 kts 321°
2026-04-28 13:07 40.78017 18.44985 35360 ft 425 kts 321°
2026-04-28 13:08 40.81121 18.41760 35729 ft 423 kts 321°
2026-04-28 13:08 40.83403 18.39386 35999 ft 422 kts 321°
2026-04-28 13:08 40.85710 18.36985 36283 ft 421 kts 321°
2026-04-28 13:08 40.88006 18.34593 36546 ft 420 kts 321°
2026-04-28 13:09 40.90295 18.32206 36804 ft 419 kts 320°
2026-04-28 13:09 40.92577 18.29823 37061 ft 418 kts 320°
2026-04-28 13:09 40.94852 18.27446 37331 ft 416 kts 320°
2026-04-28 13:09 40.97120 18.25074 37638 ft 414 kts 320°
2026-04-28 13:10 40.99374 18.22715 37878 ft 413 kts 320°
2026-04-28 13:10 41.01623 18.20359 38053 ft 413 kts 320°
2026-04-28 13:10 41.03883 18.17988 38060 ft 416 kts 320°
2026-04-28 13:11 41.07649 18.14033 38074 ft 415 kts 320°
2026-04-28 13:11 41.12155 18.09296 38068 ft 411 kts 320°
2026-04-28 13:12 41.16615 18.04597 38067 ft 408 kts 320°
2026-04-28 13:12 41.21045 17.99922 38080 ft 406 kts 320°
2026-04-28 13:13 41.25459 17.95255 38075 ft 404 kts 320°
2026-04-28 13:13 41.29859 17.90594 38073 ft 404 kts 320°
2026-04-28 13:14 41.34251 17.85934 38070 ft 404 kts 320°
2026-04-28 13:14 41.38624 17.81285 38075 ft 405 kts 320°
2026-04-28 13:15 41.43045 17.76577 38075 ft 407 kts 320°
2026-04-28 13:15 41.47483 17.71843 38069 ft 409 kts 320°
2026-04-28 13:16 41.51939 17.67080 38074 ft 411 kts 320°
2026-04-28 13:16 41.56410 17.62292 38072 ft 413 kts 320°
2026-04-28 13:17 41.60865 17.57514 38074 ft 414 kts 320°
2026-04-28 13:17 41.65405 17.52769 38070 ft 415 kts 321°
2026-04-28 13:18 41.70012 17.48115 38082 ft 415 kts 321°
2026-04-28 13:18 41.74622 17.43438 38067 ft 414 kts 321°
2026-04-28 13:19 41.79189 17.38774 38062 ft 412 kts 321°
2026-04-28 13:19 41.83728 17.34123 38069 ft 410 kts 321°
2026-04-28 13:20 41.88221 17.29511 38071 ft 408 kts 321°
2026-04-28 13:20 41.92728 17.24878 38085 ft 406 kts 320°
2026-04-28 13:21 41.97161 17.20183 38076 ft 405 kts 319°
2026-04-28 13:21 42.01546 17.15441 38069 ft 404 kts 319°
2026-04-28 13:22 42.05920 17.10705 38074 ft 403 kts 319°
2026-04-28 13:22 42.10265 17.06006 38074 ft 403 kts 319°
2026-04-28 13:23 42.14643 17.01268 38068 ft 403 kts 319°
2026-04-28 13:23 42.19022 16.96524 38077 ft 404 kts 319°
2026-04-28 13:24 42.23413 16.91757 38072 ft 405 kts 319°
2026-04-28 13:24 42.27812 16.86973 38072 ft 406 kts 319°
2026-04-28 13:25 42.32212 16.82179 38071 ft 407 kts 319°
2026-04-28 13:25 42.36620 16.77368 38071 ft 407 kts 319°
2026-04-28 13:26 42.41010 16.72567 38086 ft 408 kts 319°
2026-04-28 13:26 42.45422 16.67733 38066 ft 408 kts 319°
2026-04-28 13:27 42.49841 16.62883 38067 ft 408 kts 319°
2026-04-28 13:27 42.54250 16.58035 38071 ft 407 kts 319°
2026-04-28 13:28 42.58616 16.53224 38070 ft 407 kts 319°
2026-04-28 13:28 42.63002 16.48383 38070 ft 406 kts 319°
2026-04-28 13:29 42.67381 16.43541 38073 ft 406 kts 319°
2026-04-28 13:29 42.71753 16.38696 38070 ft 405 kts 319°
2026-04-28 13:30 42.76113 16.33856 38059 ft 404 kts 319°
2026-04-28 13:30 42.80464 16.29017 38075 ft 403 kts 319°
2026-04-28 13:31 42.86982 16.21751 38085 ft 403 kts 318°
2026-04-28 13:31 42.91299 16.16927 38071 ft 403 kts 318°
2026-04-28 13:32 42.95637 16.12071 38071 ft 403 kts 318°
2026-04-28 13:32 42.99977 16.07203 38070 ft 403 kts 318°
2026-04-28 13:33 43.04311 16.02333 38068 ft 403 kts 318°
2026-04-28 13:33 43.08643 15.97455 38059 ft 403 kts 318°
2026-04-28 13:34 43.12974 15.92571 38074 ft 404 kts 318°
2026-04-28 13:34 43.17310 15.87670 38068 ft 404 kts 318°
2026-04-28 13:35 43.21651 15.82756 38069 ft 404 kts 318°
2026-04-28 13:35 43.25959 15.77868 38070 ft 405 kts 318°
2026-04-28 13:36 43.30304 15.72930 38072 ft 405 kts 318°
2026-04-28 13:36 43.34642 15.67990 38088 ft 405 kts 318°
2026-04-28 13:37 43.38985 15.63034 38059 ft 406 kts 318°
2026-04-28 13:37 43.43329 15.58069 38069 ft 405 kts 318°
2026-04-28 13:38 43.47666 15.53101 38068 ft 405 kts 318°
2026-04-28 13:38 43.52001 15.48126 38068 ft 405 kts 318°
2026-04-28 13:39 43.56298 15.43187 38067 ft 405 kts 318°
2026-04-28 13:39 43.60617 15.38211 38072 ft 405 kts 317°
2026-04-28 13:40 43.64941 15.33220 38067 ft 404 kts 317°
2026-04-28 13:40 43.69252 15.28235 38061 ft 404 kts 317°
2026-04-28 13:41 43.73555 15.23249 38071 ft 403 kts 317°
2026-04-28 13:41 43.77846 15.18267 38067 ft 402 kts 317°
2026-04-28 13:42 43.82135 15.13277 38065 ft 402 kts 317°
2026-04-28 13:42 43.86388 15.08320 38063 ft 402 kts 317°
2026-04-28 13:43 43.90671 15.03319 38060 ft 402 kts 317°
2026-04-28 13:43 43.94952 14.98309 38062 ft 402 kts 317°
2026-04-28 13:44 43.99233 14.93291 38063 ft 403 kts 317°
2026-04-28 13:44 44.03514 14.88261 38073 ft 403 kts 317°
2026-04-28 13:45 44.07770 14.83253 38053 ft 403 kts 317°
2026-04-28 13:45 44.12053 14.78202 38065 ft 404 kts 317°
2026-04-28 13:46 44.16335 14.73144 38068 ft 404 kts 317°
2026-04-28 13:46 44.20627 14.68062 38065 ft 404 kts 317°
2026-04-28 13:47 44.24908 14.62983 38069 ft 404 kts 317°
2026-04-28 13:47 44.29190 14.57894 38058 ft 404 kts 317°
2026-04-28 13:48 44.33438 14.52836 38066 ft 404 kts 317°
2026-04-28 13:48 44.37709 14.47739 38054 ft 403 kts 317°
2026-04-28 13:49 44.41970 14.42644 38059 ft 403 kts 317°
2026-04-28 13:49 44.46230 14.37540 38066 ft 403 kts 317°
2026-04-28 13:50 44.50483 14.32435 38068 ft 403 kts 317°
2026-04-28 13:50 44.54738 14.27316 38061 ft 402 kts 317°
2026-04-28 13:51 44.58988 14.22195 38061 ft 402 kts 317°
2026-04-28 13:51 44.63226 14.17076 38065 ft 402 kts 317°
2026-04-28 13:52 44.67456 14.11958 38056 ft 401 kts 317°
2026-04-28 13:52 44.71656 14.06865 38080 ft 401 kts 317°
2026-04-28 13:53 44.75881 14.01733 38055 ft 401 kts 317°
2026-04-28 13:53 44.80112 13.96582 38049 ft 401 kts 317°
2026-04-28 13:54 44.84336 13.91429 38051 ft 402 kts 317°
2026-04-28 13:54 44.88565 13.86260 38049 ft 402 kts 317°
2026-04-28 13:55 44.92794 13.81081 38046 ft 403 kts 317°
2026-04-28 13:55 44.97026 13.75887 38050 ft 403 kts 316°
2026-04-28 13:56 45.01229 13.70718 38062 ft 403 kts 316°
2026-04-28 13:56 45.05459 13.65506 38055 ft 403 kts 316°
2026-04-28 13:57 45.09684 13.60290 38060 ft 403 kts 316°
2026-04-28 13:57 45.13898 13.55075 38057 ft 402 kts 316°
2026-04-28 13:58 45.18110 13.49853 38068 ft 402 kts 316°
2026-04-28 13:58 45.21636 13.45474 38055 ft 402 kts 316°
2026-04-28 13:59 45.25839 13.40243 38051 ft 402 kts 316°
2026-04-28 13:59 45.30013 13.35038 38048 ft 402 kts 316°
2026-04-28 14:00 45.34207 13.29798 38052 ft 401 kts 316°
2026-04-28 14:00 45.38403 13.24544 38046 ft 401 kts 316°
2026-04-28 14:01 45.42585 13.19297 38050 ft 401 kts 316°
2026-04-28 14:01 45.46769 13.14036 38050 ft 401 kts 316°
2026-04-28 14:02 45.50949 13.08769 38044 ft 401 kts 316°
2026-04-28 14:02 45.55124 13.03499 38046 ft 401 kts 316°
2026-04-28 14:03 45.59302 12.98213 38041 ft 401 kts 316°
2026-04-28 14:03 45.63447 12.92959 38058 ft 401 kts 315°
2026-04-28 14:04 45.67617 12.87661 38046 ft 401 kts 315°
2026-04-28 14:04 45.71795 12.82342 38042 ft 401 kts 315°
2026-04-28 14:05 45.75963 12.77025 38045 ft 401 kts 315°
2026-04-28 14:05 45.80133 12.71694 38053 ft 401 kts 315°
2026-04-28 14:06 45.84297 12.66361 38055 ft 401 kts 315°
2026-04-28 14:06 45.88428 12.61057 38071 ft 402 kts 315°
2026-04-28 14:07 45.92597 12.55694 38070 ft 402 kts 315°
2026-04-28 14:07 45.96765 12.50321 38066 ft 403 kts 315°
2026-04-28 14:08 46.00942 12.44926 38064 ft 403 kts 314°
2026-04-28 14:08 46.05113 12.39527 38065 ft 403 kts 314°
2026-04-28 14:09 46.09287 12.34111 38079 ft 404 kts 315°
2026-04-28 14:09 46.13443 12.28708 38069 ft 405 kts 314°
2026-04-28 14:10 46.17626 12.23259 38068 ft 405 kts 314°
2026-04-28 14:10 46.21811 12.17795 38083 ft 405 kts 314°
2026-04-28 14:11 46.25991 12.12325 38079 ft 406 kts 314°
2026-04-28 14:11 46.30145 12.06879 38081 ft 405 kts 314°
2026-04-28 14:12 46.34308 12.01409 38117 ft 403 kts 315°
2026-04-28 14:12 46.38460 11.95943 38087 ft 403 kts 314°
2026-04-28 14:13 46.42595 11.90485 38095 ft 400 kts 314°
2026-04-28 14:13 46.46707 11.85047 38083 ft 399 kts 314°
2026-04-28 14:14 46.50793 11.79632 38075 ft 397 kts 314°
2026-04-28 14:14 46.54871 11.74215 38067 ft 396 kts 314°
2026-04-28 14:15 46.58911 11.68837 38088 ft 396 kts 314°
2026-04-28 14:15 46.62970 11.63424 38058 ft 395 kts 314°
2026-04-28 14:16 46.67002 11.58034 38055 ft 393 kts 314°
2026-04-28 14:16 46.71026 11.52644 38068 ft 393 kts 314°
2026-04-28 14:17 46.75052 11.47238 38065 ft 395 kts 314°
2026-04-28 14:17 46.79107 11.41781 38071 ft 398 kts 314°
2026-04-28 14:18 46.83167 11.36309 38096 ft 401 kts 314°
2026-04-28 14:18 46.87283 11.30747 38098 ft 404 kts 314°
2026-04-28 14:19 46.91423 11.25142 38093 ft 407 kts 314°
2026-04-28 14:19 46.95531 11.19442 38076 ft 404 kts 311°
2026-04-28 14:20 46.99321 11.13481 38070 ft 395 kts 309°
2026-04-28 14:20 47.03010 11.07522 38074 ft 395 kts 309°
2026-04-28 14:21 47.06684 11.01623 38081 ft 393 kts 309°
2026-04-28 14:21 47.10390 10.95700 38087 ft 395 kts 309°
2026-04-28 14:22 47.14125 10.89727 38047 ft 399 kts 309°
2026-04-28 14:22 47.17878 10.83719 38055 ft 399 kts 309°
2026-04-28 14:23 47.21638 10.77682 38060 ft 401 kts 309°
2026-04-28 14:23 47.25411 10.71610 38045 ft 403 kts 309°
2026-04-28 14:24 47.29184 10.65526 38077 ft 402 kts 309°
2026-04-28 14:24 47.32933 10.59467 38066 ft 401 kts 309°
2026-04-28 14:25 47.36690 10.53378 38060 ft 401 kts 309°
2026-04-28 14:25 47.40493 10.47385 38040 ft 400 kts 315°
2026-04-28 14:26 47.44874 10.42314 38099 ft 400 kts 317°
2026-04-28 14:26 47.49283 10.37304 38075 ft 398 kts 317°
2026-04-28 14:27 47.53668 10.32274 38079 ft 400 kts 317°
2026-04-28 14:27 47.58049 10.27215 38081 ft 404 kts 317°
2026-04-28 14:28 47.62491 10.22069 38073 ft 406 kts 317°
2026-04-28 14:28 47.66956 10.16885 38079 ft 408 kts 317°
2026-04-28 14:29 47.71442 10.11667 38064 ft 410 kts 317°
2026-04-28 14:29 47.75933 10.06431 38077 ft 411 kts 317°
2026-04-28 14:30 47.80439 10.01165 38082 ft 412 kts 317°
2026-04-28 14:30 47.84952 9.95879 38075 ft 413 kts 316°
2026-04-28 14:31 47.89469 9.90575 38075 ft 414 kts 316°
2026-04-28 14:31 47.93988 9.85258 38068 ft 413 kts 316°
2026-04-28 14:32 47.98496 9.79940 38077 ft 413 kts 316°
2026-04-28 14:32 48.02972 9.74648 38088 ft 413 kts 317°
2026-04-28 14:33 48.07469 9.69322 38071 ft 412 kts 317°
2026-04-28 14:33 48.11761 9.63701 38084 ft 408 kts 312°
2026-04-28 14:34 48.17840 9.54805 38067 ft 407 kts 311°
2026-04-28 14:35 48.21890 9.48867 38066 ft 406 kts 311°
2026-04-28 14:35 48.25943 9.42950 38066 ft 406 kts 312°
2026-04-28 14:36 48.29992 9.37040 38068 ft 406 kts 311°
2026-04-28 14:36 48.34036 9.31130 38063 ft 405 kts 311°
2026-04-28 14:37 48.38042 9.25261 38060 ft 404 kts 311°
2026-04-28 14:37 48.42067 9.19350 38056 ft 403 kts 311°
2026-04-28 14:38 48.46081 9.13442 38051 ft 403 kts 311°
2026-04-28 14:38 48.50087 9.07531 38046 ft 403 kts 311°
2026-04-28 14:39 48.54061 9.01652 38054 ft 402 kts 311°
2026-04-28 14:39 48.58058 8.95726 38057 ft 403 kts 311°
2026-04-28 14:40 48.62089 8.89736 38057 ft 403 kts 311°
2026-04-28 14:40 48.66089 8.83779 38052 ft 404 kts 311°
2026-04-28 14:41 48.70096 8.77796 38063 ft 405 kts 311°
2026-04-28 14:41 48.74085 8.71827 38067 ft 406 kts 311°
2026-04-28 14:42 48.78104 8.65797 38064 ft 407 kts 311°
2026-04-28 14:42 48.82142 8.59726 38064 ft 409 kts 311°
2026-04-28 14:43 48.86195 8.53617 38084 ft 411 kts 311°
2026-04-28 14:43 48.90237 8.47510 38077 ft 413 kts 311°
2026-04-28 14:44 48.94311 8.41339 38056 ft 414 kts 311°
2026-04-28 14:44 48.98398 8.35134 38055 ft 415 kts 311°
2026-04-28 14:45 49.01821 8.29927 38071 ft 415 kts 311°
2026-04-28 14:45 49.05881 8.23736 38066 ft 415 kts 311°
2026-04-28 14:46 49.09954 8.17509 38063 ft 414 kts 311°
2026-04-28 14:46 49.14019 8.11280 38076 ft 414 kts 311°
2026-04-28 14:47 49.18073 8.05051 38074 ft 413 kts 311°
2026-04-28 14:47 49.22120 7.98818 38076 ft 412 kts 311°
2026-04-28 14:48 49.26150 7.92595 38078 ft 412 kts 311°
2026-04-28 14:48 49.30183 7.86353 38080 ft 412 kts 311°
2026-04-28 14:49 49.34213 7.80098 38088 ft 412 kts 311°
2026-04-28 14:49 49.38227 7.73853 38080 ft 414 kts 311°
2026-04-28 14:50 49.42305 7.67494 38068 ft 416 kts 311°
2026-04-28 14:50 49.46342 7.61184 38075 ft 417 kts 311°
2026-04-28 14:51 49.50421 7.54790 38085 ft 418 kts 311°
2026-04-28 14:51 49.54508 7.48368 38089 ft 421 kts 312°
2026-04-28 14:52 49.58606 7.41912 38103 ft 422 kts 312°
2026-04-28 14:52 49.62723 7.35411 38098 ft 424 kts 312°
2026-04-28 14:53 49.66847 7.28882 38106 ft 425 kts 312°
2026-04-28 14:53 49.70946 7.22375 38095 ft 425 kts 312°
2026-04-28 14:54 49.75068 7.15815 38116 ft 425 kts 312°
2026-04-28 14:54 49.79187 7.09243 38109 ft 425 kts 312°
2026-04-28 14:55 49.83295 7.02670 38092 ft 425 kts 312°
2026-04-28 14:55 49.87384 6.96111 38106 ft 425 kts 312°
2026-04-28 14:56 49.91481 6.89521 38080 ft 424 kts 312°
2026-04-28 14:56 49.95578 6.82915 38100 ft 424 kts 312°
2026-04-28 14:57 49.99674 6.76294 38102 ft 424 kts 312°
2026-04-28 14:57 50.03765 6.69662 38113 ft 425 kts 311°
2026-04-28 14:58 50.07857 6.63011 38096 ft 425 kts 311°
2026-04-28 14:58 50.11948 6.56344 38099 ft 425 kts 312°
2026-04-28 14:59 50.16041 6.49659 38095 ft 426 kts 311°
2026-04-28 14:59 50.19841 6.42687 38095 ft 424 kts 301°
2026-04-28 15:00 50.22926 6.34838 38098 ft 424 kts 300°
2026-04-28 15:00 50.25979 6.26939 38104 ft 425 kts 300°
2026-04-28 15:01 50.29063 6.19014 38126 ft 427 kts 300°
2026-04-28 15:01 50.32167 6.11065 38127 ft 428 kts 300°
2026-04-28 15:02 50.35277 6.03095 38135 ft 429 kts 300°
2026-04-28 15:02 50.38390 5.95094 38128 ft 430 kts 300°
2026-04-28 15:03 50.41479 5.87131 38139 ft 430 kts 300°
2026-04-28 15:03 50.44587 5.79090 38124 ft 432 kts 300°
2026-04-28 15:04 50.47698 5.71019 38140 ft 433 kts 300°
2026-04-28 15:04 50.50813 5.62913 38142 ft 434 kts 300°
2026-04-28 15:05 50.53927 5.54779 38127 ft 435 kts 300°
2026-04-28 15:05 50.57051 5.46599 38143 ft 436 kts 300°
2026-04-28 15:06 50.60159 5.38431 38150 ft 438 kts 300°
2026-04-28 15:06 50.63287 5.30187 38135 ft 439 kts 300°
2026-04-28 15:07 50.66421 5.21900 38137 ft 440 kts 300°
2026-04-28 15:07 50.69554 5.13589 38140 ft 441 kts 300°
2026-04-28 15:08 50.72693 5.05235 38148 ft 442 kts 300°
2026-04-28 15:08 50.75830 4.96859 38157 ft 444 kts 300°
2026-04-28 15:09 50.78954 4.88489 38164 ft 444 kts 300°
2026-04-28 15:09 50.82111 4.80005 38164 ft 445 kts 300°
2026-04-28 15:10 50.85224 4.71612 38159 ft 445 kts 300°
2026-04-28 15:10 50.88354 4.63146 38150 ft 446 kts 300°
2026-04-28 15:11 50.91480 4.54659 38163 ft 446 kts 300°
2026-04-28 15:11 50.94610 4.46135 38156 ft 447 kts 300°
2026-04-28 15:12 50.97742 4.37579 38165 ft 448 kts 300°
2026-04-28 15:12 51.00864 4.29020 38158 ft 449 kts 300°
2026-04-28 15:13 51.03967 4.20484 38177 ft 449 kts 300°
2026-04-28 15:13 51.07082 4.11886 38167 ft 449 kts 300°
2026-04-28 15:14 51.10194 4.03268 38167 ft 449 kts 300°
2026-04-28 15:14 51.13302 3.94631 38170 ft 449 kts 300°
2026-04-28 15:15 51.16400 3.85992 38152 ft 449 kts 300°
2026-04-28 15:15 51.19495 3.77335 38154 ft 449 kts 300°
2026-04-28 15:16 51.22578 3.68647 38166 ft 450 kts 297°
2026-04-28 15:16 51.24598 3.59233 38174 ft 450 kts 281°
2026-04-28 15:17 51.25778 3.49408 38159 ft 451 kts 281°
2026-04-28 15:17 51.26963 3.40154 38172 ft 451 kts 282°
2026-04-28 15:18 51.28225 3.30527 38174 ft 452 kts 282°
2026-04-28 15:18 51.29483 3.20826 38182 ft 453 kts 282°
2026-04-28 15:19 51.30744 3.11020 38182 ft 455 kts 282°
2026-04-28 15:19 51.31977 3.01367 38200 ft 457 kts 282°
2026-04-28 15:20 51.33170 2.91954 38216 ft 459 kts 282°
2026-04-28 15:20 51.34398 2.82213 38211 ft 461 kts 282°
2026-04-28 15:21 51.35613 2.72492 38220 ft 464 kts 282°
2026-04-28 15:21 51.36852 2.62387 38209 ft 466 kts 281°
2026-04-28 15:22 51.38073 2.52338 38210 ft 466 kts 282°
2026-04-28 15:22 51.39306 2.42126 38216 ft 467 kts 281°
2026-04-28 15:23 51.40533 2.31904 38203 ft 467 kts 282°
2026-04-28 15:23 51.41709 2.22079 38221 ft 466 kts 282°
2026-04-28 15:24 51.42935 2.12073 38229 ft 466 kts 282°
2026-04-28 15:24 51.44161 2.01998 38226 ft 466 kts 282°
2026-04-28 15:25 51.45381 1.91799 38225 ft 466 kts 282°
2026-04-28 15:25 51.46548 1.81855 38246 ft 467 kts 281°
2026-04-28 15:26 51.47704 1.71729 38237 ft 467 kts 281°
2026-04-28 15:26 51.48872 1.61456 38244 ft 468 kts 281°
2026-04-28 15:27 51.50011 1.51392 38275 ft 469 kts 281°
2026-04-28 15:27 51.50592 1.46229 38139 ft 471 kts 281°
2026-04-28 15:27 51.51168 1.41099 37680 ft 474 kts 281°
2026-04-28 15:27 51.51745 1.35921 37303 ft 468 kts 281°
2026-04-28 15:28 51.52316 1.30788 36898 ft 465 kts 281°
2026-04-28 15:28 51.52872 1.25769 36516 ft 461 kts 281°
2026-04-28 15:28 51.53430 1.20723 36147 ft 457 kts 281°
2026-04-28 15:28 51.53979 1.15722 35744 ft 454 kts 281°
2026-04-28 15:29 51.54526 1.10735 35313 ft 452 kts 281°
2026-04-28 15:29 51.55062 1.05838 34884 ft 451 kts 281°
2026-04-28 15:29 51.55586 1.01035 34502 ft 448 kts 281°
2026-04-28 15:29 51.55930 0.97874 34235 ft 448 kts 281°
2026-04-28 15:30 51.56449 0.93078 33788 ft 446 kts 281°
2026-04-28 15:30 51.56958 0.88335 33361 ft 444 kts 281°
2026-04-28 15:30 51.57477 0.83465 32944 ft 441 kts 282°
2026-04-28 15:30 51.57993 0.78612 32564 ft 439 kts 282°
2026-04-28 15:31 51.58505 0.73786 32191 ft 436 kts 282°
2026-04-28 15:31 51.59012 0.68996 31820 ft 434 kts 282°
2026-04-28 15:31 51.59516 0.64212 31444 ft 432 kts 282°
2026-04-28 15:31 51.60044 0.59452 30960 ft 434 kts 283°
2026-04-28 15:32 51.60611 0.54678 30555 ft 433 kts 282°
2026-04-28 15:32 51.61121 0.49894 30126 ft 433 kts 281°
2026-04-28 15:32 51.61598 0.45133 29739 ft 430 kts 282°
2026-04-28 15:32 51.62068 0.40386 29319 ft 428 kts 282°
2026-04-28 15:33 51.62538 0.35677 28927 ft 425 kts 282°
2026-04-28 15:33 51.63009 0.30992 28548 ft 422 kts 282°
2026-04-28 15:33 51.63473 0.26408 28182 ft 419 kts 282°
2026-04-28 15:33 51.63940 0.21781 27812 ft 417 kts 282°
2026-04-28 15:34 51.64416 0.17195 27447 ft 413 kts 285°
2026-04-28 15:34 51.65197 0.12791 27072 ft 406 kts 297°
2026-04-28 15:34 51.66336 0.08656 26721 ft 401 kts 300°
2026-04-28 15:34 51.67515 0.04591 26361 ft 399 kts 300°
2026-04-28 15:35 51.68692 0.00545 26001 ft 398 kts 300°
2026-04-28 15:35 51.71007 -0.07535 25411 ft 395 kts 301°
2026-04-28 15:35 51.72132 -0.11517 25048 ft 394 kts 300°
2026-04-28 15:36 51.73262 -0.15540 24707 ft 393 kts 300°
2026-04-28 15:36 51.74389 -0.19567 24339 ft 393 kts 300°
2026-04-28 15:36 51.75508 -0.23577 23991 ft 392 kts 300°
2026-04-28 15:36 51.76624 -0.27579 23582 ft 390 kts 300°
2026-04-28 15:37 51.77734 -0.31567 23203 ft 388 kts 300°
2026-04-28 15:37 51.78834 -0.35528 22755 ft 385 kts 300°
2026-04-28 15:37 51.79949 -0.39447 22414 ft 379 kts 305°
2026-04-28 15:37 51.81508 -0.42738 22127 ft 362 kts 320°
2026-04-28 15:38 51.83036 -0.45802 21884 ft 362 kts 314°
2026-04-28 15:38 51.84494 -0.49122 21572 ft 361 kts 311°
2026-04-28 15:38 51.85849 -0.52317 21501 ft 352 kts 311°
2026-04-28 15:38 51.87236 -0.55576 21137 ft 351 kts 312°
2026-04-28 15:39 51.88612 -0.58764 20841 ft 349 kts 312°
2026-04-28 15:39 51.90009 -0.61960 20512 ft 348 kts 312°
2026-04-28 15:39 51.91353 -0.65010 20181 ft 347 kts 312°
2026-04-28 15:39 51.92727 -0.68115 19853 ft 347 kts 312°
2026-04-28 15:40 51.94069 -0.71138 19517 ft 347 kts 312°
2026-04-28 15:40 51.95479 -0.74315 19176 ft 348 kts 311°
2026-04-28 15:40 51.96894 -0.77502 18823 ft 348 kts 311°
2026-04-28 15:40 51.98313 -0.80698 18459 ft 349 kts 311°
2026-04-28 15:41 51.99737 -0.83912 18079 ft 349 kts 311°
2026-04-28 15:41 52.01151 -0.87110 17733 ft 348 kts 311°
2026-04-28 15:41 52.02559 -0.90298 17382 ft 346 kts 310°
2026-04-28 15:41 52.03944 -0.93436 17060 ft 345 kts 310°
2026-04-28 15:42 52.05341 -0.96606 16700 ft 343 kts 310°
2026-04-28 15:42 52.06723 -0.99747 16391 ft 342 kts 311°
2026-04-28 15:42 52.08107 -1.02894 16056 ft 341 kts 311°
2026-04-28 15:42 52.09492 -1.06027 15613 ft 343 kts 311°
2026-04-28 15:43 52.10912 -1.09186 15125 ft 347 kts 311°
2026-04-28 15:43 52.12348 -1.12367 14657 ft 350 kts 310°
2026-04-28 15:43 52.13791 -1.15574 14181 ft 353 kts 309°
2026-04-28 15:43 52.14937 -1.19128 13628 ft 359 kts 288°
2026-04-28 15:44 52.15387 -1.23114 13118 ft 355 kts 277°
2026-04-28 15:44 52.15637 -1.27041 12606 ft 351 kts 276°
2026-04-28 15:44 52.15862 -1.30980 12087 ft 348 kts 276°
2026-04-28 15:44 52.16081 -1.34890 11572 ft 344 kts 275°
2026-04-28 15:45 52.16296 -1.38758 11075 ft 341 kts 275°
2026-04-28 15:45 52.16512 -1.42580 10583 ft 338 kts 275°
2026-04-28 15:45 52.16730 -1.46385 10076 ft 335 kts 275°
2026-04-28 15:45 52.16948 -1.50143 9545 ft 332 kts 275°
2026-04-28 15:46 52.17165 -1.53868 9024 ft 329 kts 275°
2026-04-28 15:46 52.17380 -1.57561 8547 ft 324 kts 277°
2026-04-28 15:46 52.18029 -1.60973 8213 ft 310 kts 306°
2026-04-28 15:46 52.19474 -1.63344 7916 ft 292 kts 329°
2026-04-28 15:47 52.21132 -1.65122 7644 ft 278 kts 339°
2026-04-28 15:47 52.22921 -1.65836 7372 ft 256 kts
2026-04-28 15:47 52.24590 -1.65287 7100 ft 239 kts 25°
2026-04-28 15:47 52.26120 -1.64289 6702 ft 234 kts 31°
2026-04-28 15:48 52.27559 -1.63074 6222 ft 233 kts 34°
2026-04-28 15:48 52.28962 -1.61768 5748 ft 230 kts 35°
2026-04-28 15:48 52.30419 -1.60732 5215 ft 231 kts 17°
2026-04-28 15:48 52.32017 -1.60535 4647 ft 233 kts
2026-04-28 15:49 52.33566 -1.61476 4003 ft 246 kts 333°
2026-04-28 15:49 52.34969 -1.63116 3275 ft 249 kts 329°
2026-04-28 15:49 52.36372 -1.64753 2550 ft 245 kts 331°
2026-04-28 15:49 52.37731 -1.66273 2198 ft 228 kts 332°
2026-04-28 15:50 52.39006 -1.67693 1775 ft 215 kts 332°
2026-04-28 15:50 52.40200 -1.69025 1448 ft 200 kts 333°
2026-04-28 15:50 52.41310 -1.70263 1153 ft 185 kts 332°
2026-04-28 15:50 52.42325 -1.71394 942 ft 167 kts 330°
2026-04-28 15:51 52.43248 -1.72423 684 ft 154 kts 332°
2026-04-28 15:51 52.44097 -1.73389 472 ft 144 kts 333°
2026-04-28 15:51 52.44907 -1.74276 331 ft 136 kts 332°
2026-04-28 15:51 52.45549 -1.74984 322 ft 81 kts 326°
2026-04-28 15:52 52.45877 -1.75348 317 ft 48 kts 326°
2026-04-28 15:52 52.46078 -1.75570 308 ft 19 kts 327°
2026-04-28 15:52 52.46165 -1.75582 309 ft 14 kts 50°
2026-04-28 15:52 52.46216 -1.75440 304 ft 16 kts 84°
2026-04-28 15:53 52.46146 -1.75319 306 ft 15 kts 146°
2026-04-28 15:53 52.46059 -1.75222 305 ft 15 kts 146°
2026-04-28 15:53 52.45978 -1.75130 304 ft 14 kts 147°
2026-04-28 15:53 52.45899 -1.75045 306 ft 13 kts 145°
2026-04-28 15:54 52.45819 -1.74954 307 ft 15 kts 146°
2026-04-28 15:54 52.45724 -1.74849 310 ft 18 kts 146°
2026-04-28 15:54 52.45623 -1.74736 317 ft 17 kts 145°
2026-04-28 15:54 52.45524 -1.74626 322 ft 18 kts 147°
2026-04-28 15:55 52.45441 -1.74463 322 ft 20 kts 117°
2026-04-28 15:55 52.45374 -1.74241 322 ft 23 kts 117°
2026-04-28 15:55 52.45302 -1.74011 322 ft 22 kts 124°
2026-04-28 15:55 52.45179 -1.73862 321 ft 22 kts 146°
2026-04-28 15:56 52.45103 -1.73720 322 ft 14 kts 76°
2026-04-28 15:56 52.45155 -1.73588 322 ft 14 kts 54°
2026-04-28 15:56 52.45179 -1.73496 322 ft 5 kts 118°
2026-04-28 15:56 52.45154 -1.73455 322 ft 5 kts 140°
2026-04-28 15:57 52.45143 -1.73439 322 ft 0 kts 140°
2026-04-28 15:57 52.45142 -1.73438 322 ft 0 kts 140°
2026-04-28 15:57 52.45141 -1.73437 322 ft 0 kts 140°